Regional Weather Roundup
Issued by NWS Sioux Falls, SD

Home | Current Version | Previous Version | Text Only | Print | Product List | Glossary Off
Versions: 1 2 3 4 5 6 7 8 9 10 11 12 13 14 15 16 17 18 19 20 21 22 23 24 25 26 27 28 29 30 31 32 33 34 35 36 37 38 39 40 41 42 43 44 45 46 47 48 49 50

000
ASUS43 KFSD 260310
RWRFSD

WEATHER ROUNDUP FOR SE SOUTH DAKOTA/SW MINNESOTA/NW IOWA
NATIONAL WEATHER SERVICE SIOUX FALLS SD
1000 PM CDT SAT APR 25 2015

NOTE: "FAIR" INDICATES FEW OR NO CLOUDS BELOW 12,000 FEET WITH NO
SIGNIFICANT WEATHER AND OR OBSTRUCTIONS TO VISIBILITY.


SDZ038>040-050-052>070-260400-
SOUTHEAST SOUTH DAKOTA

CITY           SKY/WX    TMP DP  RH WIND       PRES   REMARKS
BROOKINGS      MOCLDY    48  39  71 SE10      29.93R
CHAMBERLAIN    CLOUDY    54  45  71 E7        29.88R
HURON          CLOUDY    51  42  71 E6        29.90R
MADISON        FAIR      48  45  87 E12       29.92R
MITCHELL       CLOUDY    54  45  71 E10       29.90R
SIOUX FALLS    CLOUDY    53  40  61 E15       29.91R
WINNER         CLOUDY    54  45  71 SE6       29.87R
YANKTON        CLOUDY    54  39  58 E10G17    29.88R
$$

MNZ071-072-080-081-089-090-097-098-260400-
SOUTHWEST MINNESOTA

CITY           SKY/WX    TMP DP  RH WIND       PRES   REMARKS
FAIRMONT       CLEAR     45  34  65 CALM      29.92S
JACKSON        PTCLDY    45  36  70 E3        29.94R
LUVERNE        MOCLDY    52  41  66 E7        29.93R
MARSHALL       CLOUDY    52  36  54 S6        29.93R
MONTEVIDEO     CLEAR     45  37  76 E6        29.95R
REDWOOD FALLS  PTCLDY    50  37  61 S6        29.93R
TRACY          PTCLDY    48  37  66 S5        29.94R
WORTHINGTON    PTCLDY    45  36  70 E5        29.93S
$$

IAZ001>003-012>014-020>022-031-032-NEZ013-014-SDZ071-260400-
NORTHWEST IOWA

CITY           SKY/WX    TMP DP  RH WIND       PRES   REMARKS
CHEROKEE       CLOUDY    51  41  70 E10       29.91R
DENISON        CLOUDY    48  45  87 E8        29.87R
ESTHERVILLE    FAIR      41  36  82 NE6       29.92R
LE MARS        CLOUDY    54  43  66 E10G16    29.91R
ORANGE CITY    CLOUDY    50  41  71 E9        29.91R
SHELDON        CLOUDY    50  41  71 E12       29.91R
SIOUX CITY     CLOUDY    54  40  59 E7        29.89R
SPENCER        CLOUDY    50  40  68 E9        29.92R
STORM LAKE     CLOUDY    50  41  71 E14       29.91R
$$

ABBREVIATIONS USED IN REMARKS
   TC - TEMPERATURE IN CELSIUS
  WCI - WIND CHILL INDEX
   HX - HEAT INDEX
  VSB - VISIBILITY




USA.gov is the U.S. government's official web portal to all federal, state and local government web resources and services.